Holyoke AP, Holyoke, CO, CO

8:44 AM MDT on October 23, 2017 (GMT -0600)
Holyoke Municipal

Weather History for KHEQ - January, 2014

Change the Weather History Date:

Wednesday, January 1, 2014

  Actual Average Record
Temperature  
Mean Temperature 30 °F -  
Max Temperature 41 °F 38 °F 42 °F (2017)
Min Temperature 19 °F 11 °F 1 °F (2015)
Degree Days  
Heating Degree Days 35    
Moisture  
Dew Point 27 °F    
Average Humidity 82    
Maximum Humidity 93    
Minimum Humidity 65    
Precipitation  
Precipitation 0.00 in - - ()
Sea Level Pressure  
Sea Level Pressure 30.14 in    
Wind  
Wind Speed 10 mph (NNW)    
Max Wind Speed 21 mph    
Max Gust Speed 25 mph    
Visibility 9 miles    
Events Rain , Snow    
Averages and records for this station are not official NWS values.
T = Trace of Precipitation, MM = Missing Value Source: NWS Daily Summary

Daily Weather History Graph

Daily Weather History Graph

Search for Another Location

Airport or City:

Trip Planner

Search our weather history database for the weather conditions in past years. The results will help you decide how hot, cold, wet, or windy it might be!

Date:

Astronomy

Jan. 01, 2014 Rise Set
Actual Time 7:12 AM MST 4:33 PM MST
Civil Twilight 6:42 AM MST 5:03 PM MST
Nautical Twilight 6:07 AM MST 5:37 PM MST
Astronomical Twilight 5:34 AM MST 6:11 PM MST
Moon 7:04 AM MST (1/1) 5:20 PM MST (1/1)
Length of Visible Light 10h 21m
Length of Day
9h 20m
New Moon, 0% of the Moon is Illuminated
Jan 1
New Moon
Jan 7
First Quarter
Jan 15
Full
Jan 23
Last Quarter
Jan 30
New

Hourly Weather History & Observations

Time (MST) Temp. Windchill Dew Point Humidity Pressure Visibility Wind Dir Wind Speed Gust Speed Precip Events Conditions
12:15 AM 33.8 °F - 23.0 °F 65% 29.91 in 10.0 mi Calm Calm - N/A   Mostly Cloudy
12:35 AM 33.8 °F 29.6 °F 23.0 °F 65% 29.91 in 10.0 mi East 4.6 mph - N/A   Overcast
12:55 AM 33.8 °F - 23.0 °F 65% 29.91 in 10.0 mi Calm Calm - N/A   Overcast
1:15 AM 35.6 °F 29.9 °F 24.8 °F 65% 29.93 in 10.0 mi NNE 6.9 mph - N/A   Overcast
1:35 AM 35.6 °F 30.7 °F 24.8 °F 65% 29.94 in 10.0 mi NNE 5.8 mph - N/A   Overcast
1:55 AM 35.6 °F 29.9 °F 26.6 °F 70% 29.95 in 10.0 mi North 6.9 mph - N/A Rain Light Rain
2:15 AM 41.0 °F 33.5 °F 33.8 °F 76% 29.94 in 10.0 mi North 13.8 mph - N/A   Overcast
2:35 AM 41.0 °F 34.3 °F 33.8 °F 76% 29.94 in 10.0 mi North 11.5 mph - N/A   Overcast
2:55 AM 41.0 °F 34.7 °F 33.8 °F 76% 29.94 in 10.0 mi NNW 10.4 mph - N/A   Overcast
3:15 AM 41.0 °F 34.7 °F 35.6 °F 81% 29.94 in 10.0 mi NW 10.4 mph - N/A   Light Drizzle
3:35 AM 41.0 °F 36.4 °F 35.6 °F 81% 29.93 in 10.0 mi NW 6.9 mph - N/A Rain Rain
3:55 AM 41.0 °F 35.8 °F 35.6 °F 81% 29.92 in 10.0 mi NNW 8.1 mph - N/A   Overcast
4:15 AM 41.0 °F 37.1 °F 37.4 °F 87% 29.91 in 10.0 mi NW 5.8 mph - N/A Rain Rain
4:35 AM 41.0 °F 35.8 °F 35.6 °F 81% 29.92 in 10.0 mi NNW 8.1 mph - N/A   Overcast
4:55 AM 39.2 °F 33.0 °F 35.6 °F 87% 29.92 in 10.0 mi North 9.2 mph - N/A   Overcast
5:15 AM 37.4 °F 28.2 °F 33.8 °F 87% 29.94 in 10.0 mi North 16.1 mph - N/A   Overcast
5:35 AM 35.6 °F 25.9 °F 32.0 °F 87% 29.95 in 10.0 mi North 16.1 mph 21.9 mph N/A   Overcast
5:55 AM 33.8 °F 24.3 °F 32.0 °F 93% 29.97 in 10.0 mi North 13.8 mph 18.4 mph N/A   Overcast
6:15 AM 33.8 °F 23.5 °F 32.0 °F 93% 29.98 in 10.0 mi North 16.1 mph 21.9 mph N/A   Overcast
6:35 AM 33.8 °F 23.5 °F 32.0 °F 93% 30.00 in 5.0 mi North 16.1 mph 20.7 mph N/A Snow Light Snow
6:55 AM 33.8 °F 23.2 °F 32.0 °F 93% 30.03 in 3.0 mi NNE 17.3 mph - N/A Snow Light Snow
7:15 AM 32.0 °F 20.8 °F 28.4 °F 87% 30.04 in 2.0 mi NNE 17.3 mph - N/A Snow Light Snow
7:35 AM 32.0 °F 20.8 °F 30.2 °F 93% 30.05 in 1.5 mi NNE 17.3 mph 21.9 mph N/A Snow Light Snow
7:55 AM 32.0 °F 20.8 °F 28.4 °F 87% 30.06 in 0.8 mi North 17.3 mph 23.0 mph N/A Snow Light Snow
8:15 AM 30.2 °F 18.5 °F 28.4 °F 93% 30.09 in 1.2 mi North 17.3 mph - N/A Snow Light Snow
8:35 AM 32.0 °F 21.2 °F 28.4 °F 87% 30.10 in 1.5 mi North 16.1 mph 19.6 mph N/A Snow Light Snow
8:55 AM 32.0 °F 22.1 °F 28.4 °F 87% 30.11 in 2.0 mi North 13.8 mph 18.4 mph N/A Snow Light Snow
9:15 AM 32.0 °F 21.2 °F 28.4 °F 87% 30.13 in 7.0 mi North 16.1 mph 21.9 mph N/A   Mostly Cloudy
9:35 AM 32.0 °F 20.8 °F 28.4 °F 87% 30.14 in 10.0 mi North 17.3 mph 20.7 mph N/A   Mostly Cloudy
9:55 AM 32.0 °F 21.6 °F 28.4 °F 87% 30.15 in 10.0 mi North 15.0 mph 23.0 mph N/A   Overcast
10:15 AM 32.0 °F 21.2 °F 26.6 °F 80% 30.15 in 10.0 mi North 16.1 mph - N/A   Overcast
10:35 AM 32.0 °F 20.8 °F 26.6 °F 80% 30.15 in 10.0 mi North 17.3 mph 25.3 mph N/A   Overcast
10:55 AM 33.8 °F 22.8 °F 28.4 °F 81% 30.15 in 10.0 mi North 18.4 mph 23.0 mph N/A   Mostly Cloudy
11:15 AM 33.8 °F 22.2 °F 26.6 °F 75% 30.15 in 10.0 mi North 20.7 mph 24.2 mph N/A   Mostly Cloudy
11:35 AM 32.0 °F 19.8 °F 26.6 °F 80% 30.16 in 10.0 mi North 20.7 mph 25.3 mph N/A   Scattered Clouds
11:55 AM 33.8 °F 22.8 °F 26.6 °F 75% 30.16 in 10.0 mi North 18.4 mph 21.9 mph N/A   Clear
12:15 PM 33.8 °F 22.8 °F 26.6 °F 75% 30.16 in 10.0 mi North 18.4 mph - N/A   Scattered Clouds
12:35 PM 33.8 °F 24.3 °F 24.8 °F 70% 30.17 in 10.0 mi North 13.8 mph - N/A   Scattered Clouds
12:55 PM 33.8 °F 23.9 °F 26.6 °F 75% 30.16 in 10.0 mi North 15.0 mph 19.6 mph N/A   Mostly Cloudy
1:15 PM 33.8 °F 22.8 °F 26.6 °F 75% 30.17 in 10.0 mi North 18.4 mph 21.9 mph N/A   Scattered Clouds
1:35 PM 33.8 °F 24.3 °F 26.6 °F 75% 30.18 in 10.0 mi North 13.8 mph 21.9 mph N/A   Mostly Cloudy
1:55 PM 33.8 °F 23.9 °F 26.6 °F 75% 30.19 in 10.0 mi North 15.0 mph 20.7 mph N/A   Overcast
2:15 PM 33.8 °F 23.9 °F 26.6 °F 75% 30.20 in 10.0 mi North 15.0 mph - N/A   Overcast
2:35 PM 32.0 °F 20.8 °F 26.6 °F 80% 30.20 in 10.0 mi North 17.3 mph 21.9 mph N/A   Overcast
2:55 PM 32.0 °F 21.6 °F 28.4 °F 87% 30.21 in 3.0 mi North 15.0 mph - N/A Snow Light Snow
3:15 PM 32.0 °F 21.2 °F 28.4 °F 87% 30.23 in 10.0 mi North 16.1 mph - N/A   Overcast
3:35 PM 32.0 °F 23.0 °F 26.6 °F 80% 30.25 in 10.0 mi North 11.5 mph - N/A   Mostly Cloudy
3:55 PM 32.0 °F 22.5 °F 26.6 °F 80% 30.25 in 10.0 mi North 12.7 mph - N/A   Overcast
4:15 PM 30.2 °F 19.3 °F 24.8 °F 80% 30.27 in 10.0 mi NNE 15.0 mph - N/A   Overcast
4:35 PM 30.2 °F 20.8 °F 23.0 °F 75% 30.27 in 10.0 mi North 11.5 mph - N/A   Overcast
4:55 PM 30.2 °F 22.6 °F 23.0 °F 75% 30.28 in 10.0 mi North 8.1 mph - N/A   Overcast
5:15 PM 30.2 °F - 24.8 °F 80% 30.29 in 10.0 mi Calm Calm - N/A   Overcast
5:35 PM 30.2 °F - 26.6 °F 86% 30.29 in 10.0 mi Calm Calm - N/A   Overcast
5:55 PM 30.2 °F - 26.6 °F 86% 30.30 in 7.0 mi Calm Calm - N/A   Overcast
6:15 PM 30.2 °F 24.3 °F 26.6 °F 86% 30.30 in 5.0 mi West 5.8 mph - N/A   Overcast
6:35 PM 30.2 °F 23.4 °F 26.6 °F 86% 30.30 in 10.0 mi West 6.9 mph - N/A   Overcast
6:55 PM 30.2 °F 24.3 °F 26.6 °F 86% 30.29 in 10.0 mi West 5.8 mph - N/A   Overcast
7:15 PM 30.2 °F 25.4 °F 26.6 °F 86% 30.30 in 10.0 mi West 4.6 mph - N/A   Overcast
7:35 PM 30.2 °F 24.3 °F 26.6 °F 86% 30.29 in 10.0 mi West 5.8 mph - N/A   Overcast
7:55 PM 30.2 °F 24.3 °F 26.6 °F 86% 30.28 in 10.0 mi West 5.8 mph - N/A   Overcast
8:15 PM 28.4 °F 19.7 °F 24.8 °F 86% 30.28 in 10.0 mi WSW 9.2 mph - N/A   Mostly Cloudy
8:35 PM 26.6 °F 20.0 °F 23.0 °F 86% 30.28 in 10.0 mi WSW 5.8 mph - N/A   Clear
8:55 PM 24.8 °F 17.9 °F 21.2 °F 86% 30.28 in 10.0 mi WSW 5.8 mph - N/A   Clear
9:15 PM 23.0 °F 13.1 °F 19.4 °F 86% 30.28 in 10.0 mi WSW 9.2 mph - N/A   Clear
9:35 PM 21.2 °F 10.9 °F 19.4 °F 93% 30.28 in 10.0 mi WSW 9.2 mph - N/A   Clear
9:55 PM 21.2 °F 10.1 °F 19.4 °F 93% 30.28 in 10.0 mi WSW 10.4 mph - N/A   Clear
10:15 PM 21.2 °F 11.7 °F 19.4 °F 93% 30.28 in 10.0 mi West 8.1 mph - N/A   Clear
10:35 PM 21.2 °F 10.1 °F 19.4 °F 93% 30.28 in 10.0 mi West 10.4 mph - N/A   Clear
10:55 PM 21.2 °F 10.9 °F 17.6 °F 86% 30.27 in 10.0 mi West 9.2 mph - N/A   Clear
11:15 PM 19.4 °F 8.6 °F 15.8 °F 86% 30.27 in 10.0 mi West 9.2 mph - N/A   Clear
11:35 PM 19.4 °F 7.9 °F 17.6 °F 93% 30.27 in 10.0 mi West 10.4 mph - N/A   Scattered Clouds
11:55 PM 24.8 °F 14.0 °F 21.2 °F 86% 30.27 in 10.0 mi WNW 11.5 mph - N/A   Mostly Cloudy